Flag for U.S.A. Weather past 2 weeks in Overland Park, Kansas, U.S.A.

Now
71 °F

Passing clouds.


Feels Like: 65 °F
Forecast: 69 / 76 °F
Wind: 6 mph from Northeast

Location: Johnson County Executive Airport

Current Time: Jul 2, 2015 at 3:32:49 AM

Latest Report: Jul 2, 2015 at 2:53 AM


Visibility: 10 mi

Pressure: 29.80 "Hg

Humidity: 96%

Dew point: 70 °F

Location of Overland ParkLocation

Historic Weather in Overland Park — Graph

°F

Overland Park temperature yesterday

Maximum temperature yesterday: 85 °F (at 5:53 PM)
Minimum temperature yesterday: 67 °F (at 4:53 AM)
Average temperature yesterday: 75 °F

Past Weeks' High & Low Weather Summary

 TemperatureHumidityPressure
High95 °F (Jun 25, 3:53 PM)100% (Jun 26, 2:53 AM)30.18 "Hg (Jun 26, 2:53 AM)
Low63 °F (Jun 27, 4:53 AM)37% (Jun 28, 4:53 PM)29.74 "Hg (Jul 1, 8:53 PM)
Average78 °F71%29.91 "Hg
* Reported Jun 17 6:00 AM — Jul 2 1:53 AM, Overland Park, Weather by CustomWeather, © 2015

Note: Actual official high and low records may vary slightly from our data, if they occured in-between our weather recording intervals... More about our weather records

Advertising

Overland Park weather history for previous 24 hours

 ConditionsComfort  
Time TempWeatherWind HumidityBarometerVisibility
1:53 AM
Thu, Jul 2
71 °FClear.7 mph90%29.80 "Hg10 mi
12:53 AM72 °FPassing clouds.9 mph78%29.82 "Hg10 mi
11:53 PM
Wed, Jul 1
74 °FPassing clouds.10 mph76%29.78 "Hg10 mi
10:53 PM74 °FMostly cloudy.10 mph82%29.78 "Hg10 mi
9:53 PM75 °FPassing clouds.9 mph79%29.76 "Hg10 mi
8:53 PM84 °FPartly sunny.3 mph74%29.74 "Hg10 mi
7:53 PM84 °FScattered clouds.7 mph77%29.74 "Hg10 mi
6:53 PM85 °FSunny.7 mph77%29.75 "Hg10 mi
5:53 PM85 °FSunny.12 mph75%29.76 "Hg10 mi
4:53 PM83 °FSunny.12 mph77%29.78 "Hg10 mi
3:53 PM82 °FPassing clouds.13 mph74%29.78 "Hg10 mi
2:53 PM83 °FPassing clouds.12 mph74%29.79 "Hg10 mi
1:53 PM81 °FSunny.17 mph77%29.79 "Hg10 mi
12:53 PM78 °FPassing clouds.16 mph82%29.81 "Hg10 mi
11:53 AM75 °FSunny.14 mph88%29.82 "Hg10 mi
10:53 AM76 °FSunny.18 mph85%29.80 "Hg10 mi
9:53 AM73 °FSunny.16 mph88%29.82 "Hg10 mi
8:53 AM71 °FSunny.16 mph87%29.83 "Hg10 mi
7:53 AM68 °FPartly sunny.10 mph93%29.86 "Hg7 mi
7:03 AM67 °FThundershowers. More clouds than sun.12 mph97%29.90 "Hg7 mi
6:53 AM67 °FFog.9 mph97%29.88 "Hg6 mi
5:53 AM67 °FLight rain. Fog.9 mph100%29.87 "Hg4 mi
4:53 AM67 °FLight rain. Fog.7 mph97%29.87 "Hg6 mi
3:53 AM68 °FMostly cloudy.9 mph93%29.83 "Hg10 mi
Weather by CustomWeather, © 2015

See weather overviewHow to use our weather pages